User: anonymous   Login
Location: Newark
(52.3735°N, 16.9806°E)
Time: 06:27:33
(UTC+00:00)
Language:

Nauka - Orbit

View from above orbital plane
View from above orbital plane
View from above satellite
View from above satellite

Ground track
Ground track

The orbit data is extracted from the following two-line orbital elements,

1 49044U 21066A   21296.51251549  .00004648  00000-0  93182-4 0  9997
2 49044  51.6438  68.2076 0004432 138.6913 340.2170 15.48778840308485
Epoch (UTC): 23 October 2021 12:18:01
Eccentricity: 0.0004432
inclination: 51.6438°
perigee height: 417 km
apogee height: 423 km
right ascension of ascending node: 68.2076°
argument of perigee: 138.6913°
revolutions per day: 15.48778840
mean anomaly at epoch: 340.2170°
orbit number at epoch: 30848

The dashed part of the orbit path shows where the satellite is in the earth's shadow,  

DLR